QPF
0.00 0.00 0.00 0.00 0.00 0.00 0.00 0.00 0.00 0.00 0.00 0.00 0.00 0.00 0.00 0.00 0.00 0.00 0.00 0.00 0.00 0.00 0.00 0.00 0.00 0.00 0.00
0.00 0.00 0.00 0.00 0.00 0.00 0.00 0.00 0.00 0.00 0.00 0.00 0.00 0.00 0.00 0.00 0.00 0.00 0.00 0.00 0.00 0.00 0.00 0.00 0.00 0.00 0.00
0.00 0.00 0.00 0.00 0.00 0.00 0.00 0.00 0.00 0.00 0.00 0.00 0.00 0.00 0.00 0.00 0.00 0.00 0.00 0.00 0.00 0.00 0.00 0.00 0.00 0.00 0.00
0.00 0.00 0.00 0.00 0.00 0.00 0.00 0.00 0.00 0.00 0.00 0.00 0.00 0.00 0.00 0.00 0.00 0.00 0.00 0.00 0.00 0.00 0.00 0.00 0.00 0.00 0.00
0.00 0.00 0.00 0.00 0.00 0.00 0.00 0.00 0.00 0.00 0.00 0.00 0.00 0.00 0.00 0.00 0.00 0.00 0.00 0.00 0.00 0.00 0.00 0.00 0.00 0.00 0.00
0.00 0.00 0.00 0.00 0.00 0.00 0.00 0.00 0.00 0.00 0.00 0.00 0.00 0.00 0.00 0.00 0.00 0.00 0.00 0.00 0.00 0.00 0.00 0.00 0.00 0.00 0.00
0.00 0.00 0.00 0.00 0.00 0.00 0.00 0.00 0.00 0.00 0.00 0.00 0.00 0.00 0.00 0.00 0.00 0.00 0.00 0.00 0.00 0.00 0.00 0.00 0.00 0.00 0.00
0.00 0.00 0.00 0.00 0.00 0.00 0.00 0.00 0.00 0.00 0.00 0.00 0.00 0.00 0.00 0.00 0.00 0.00 0.00 0.00 0.00 0.00 0.00 0.00 0.00 0.00 0.00
0.00 0.00 0.00 0.00 0.00 0.00 0.00 0.00 0.00 0.00 0.00 0.00 0.00 0.00 0.00 0.00 0.00 0.00 0.00 0.00 0.00 0.00 0.00 0.00 0.00 0.00 0.00
0.00 0.00 0.00 0.00 0.00 0.00 0.00 0.00 0.00 0.00 0.00 0.00 0.00 0.00 0.00 0.00 0.00 0.00 0.00 0.00 0.00 0.00 0.00 0.00 0.00 0.00 0.00
0.00 0.00 0.00 0.00 0.00 0.00 0.00 0.00 0.00 0.00 0.00 0.00 0.00 0.00 0.00 0.00 0.00 0.00 0.00 0.00 0.00 0.00 0.00 0.00 0.00 0.00 0.00
0.00 0.00 0.00 0.00 0.00 0.00 0.00 0.00 0.00 0.00 0.00 0.00 0.00 0.00 0.00 0.00 0.00 0.00 0.00 0.00 0.00 0.00 0.00 0.00 0.00 0.00 0.00
0.00 0.00 0.00 0.00 0.00 0.00 0.00 0.00 0.00 0.00 0.00 0.00 0.00 0.00 0.00 0.00 0.00 0.00 0.00 0.00 0.00 0.00 0.00 0.00 0.00 0.00 0.00
0.00 0.00 0.00 0.00 0.00 0.00 0.00 0.00 0.00 0.00 0.00 0.00 0.00 0.00 0.00 0.00 0.00 0.00 0.00 0.00 0.00 0.00 0.00 0.00 0.00 0.00 0.00
0.00 0.00 0.00 0.00 0.00 0.00 0.00 0.00 0.00 0.00 0.00 0.00 0.00 0.00 0.00 0.00 0.00 0.00 0.00 0.00 0.00 0.00 0.00 0.00 0.00 0.00 0.00
0.00 0.00 0.00 0.00 0.00 0.00 0.00 0.00 0.00 0.00 0.00 0.00 0.00 0.00 0.00 0.00 0.00 0.00 0.00 0.00 0.00 0.00 0.00 0.00 0.00 0.00 0.00
0.00 0.00 0.00 0.00 0.00 0.00 0.00 0.00 0.00 0.00 0.00 0.00 0.00 0.00 0.00 0.00 0.00 0.00 0.00 0.00 0.00 0.00 0.00 0.00 0.00 0.00 0.00
MSLP
1025.42 1025.74 1026.01 1026.40 1026.46 1026.66 1026.88 1027.25 1027.51 1027.61 1027.80 1028.18 1028.55 1029.07 1029.52 1029.90 1030.26 1030.22 1030.46 1030.46 1030.50 1030.58 1030.58 1030.29 1030.13 1029.64 1029.81
1025.32 1025.76 1025.79 1026.24 1026.29 1026.60 1026.81 1027.06 1027.42 1027.44 1027.59 1027.96 1028.33 1028.76 1029.14 1029.63 1029.92 1030.19 1030.30 1030.42 1030.59 1030.59 1030.50 1030.26 1030.13 1029.89 1029.91
1024.98 1025.61 1025.72 1026.11 1026.45 1026.57 1026.86 1027.26 1027.44 1027.50 1027.52 1027.66 1028.09 1028.42 1028.83 1029.28 1029.66 1029.99 1030.14 1030.26 1030.47 1030.31 1030.30 1030.15 1029.78 1029.73 1029.65
1024.68 1024.99 1025.40 1026.21 1026.04 1026.51 1026.97 1027.07 1027.39 1027.48 1027.63 1027.76 1028.01 1028.35 1028.66 1028.90 1029.26 1029.56 1029.83 1030.01 1030.05 1030.03 1029.78 1029.57 1029.53 1029.63 1029.45
1024.03 1024.36 1024.99 1025.62 1025.48 1025.80 1026.62 1026.88 1027.37 1027.65 1027.79 1027.94 1028.20 1028.30 1028.43 1028.46 1028.71 1029.07 1029.41 1029.59 1029.75 1029.76 1029.85 1029.52 1029.42 1029.28 1029.18
1022.98 1023.27 1023.81 1023.95 1024.49 1025.12 1025.75 1026.75 1027.39 1027.18 1027.72 1027.82 1028.07 1028.24 1028.25 1028.41 1028.54 1028.88 1029.14 1029.30 1029.42 1029.39 1029.51 1029.34 1029.25 1028.95 1028.84
1021.44 1021.89 1022.40 1022.79 1023.57 1024.27 1024.84 1025.47 1026.00 1026.63 1027.02 1027.69 1028.11 1028.05 1028.01 1028.08 1028.29 1028.51 1028.72 1028.84 1028.90 1029.01 1029.13 1028.93 1028.87 1028.44 1028.59
1020.54 1020.96 1021.35 1022.07 1022.47 1023.02 1023.72 1025.00 1026.12 1026.72 1027.10 1027.59 1027.69 1027.88 1027.91 1028.12 1028.05 1028.14 1028.36 1028.50 1028.63 1028.84 1028.79 1028.82 1028.77 1028.47 1028.45
1020.07 1020.44 1020.83 1021.63 1022.01 1022.98 1024.10 1024.98 1026.01 1026.53 1026.89 1027.11 1027.68 1027.94 1028.10 1028.23 1028.44 1028.21 1028.13 1028.22 1028.59 1028.67 1028.58 1028.44 1028.45 1028.30 1028.42
1020.68 1021.01 1021.16 1021.65 1022.02 1022.25 1023.14 1024.09 1025.07 1026.04 1026.27 1026.84 1027.50 1027.80 1028.38 1028.45 1028.57 1028.59 1028.56 1028.46 1028.64 1028.52 1028.36 1028.28 1028.12 1028.23 1028.22
1020.97 1021.38 1021.68 1022.14 1022.52 1022.61 1023.04 1023.53 1024.17 1025.00 1025.65 1026.17 1027.32 1028.01 1028.51 1028.67 1028.61 1028.61 1028.80 1028.96 1028.99 1028.77 1028.67 1028.32 1028.02 1027.78 1027.67
1021.26 1021.80 1022.16 1022.73 1023.28 1023.34 1023.86 1024.07 1024.17 1024.46 1025.36 1026.03 1027.29 1027.97 1028.46 1029.02 1029.26 1028.91 1028.76 1028.81 1029.03 1028.95 1028.70 1028.20 1027.74 1027.14 1026.73
1021.50 1022.10 1022.73 1023.41 1023.90 1024.18 1024.48 1024.61 1025.18 1025.76 1026.15 1026.61 1027.09 1027.84 1028.41 1029.01 1029.26 1029.38 1029.19 1028.85 1028.90 1028.79 1028.49 1028.11 1027.54 1026.88 1026.49
1021.98 1022.66 1023.12 1023.75 1024.19 1024.44 1025.08 1025.58 1026.01 1026.85 1026.89 1027.11 1027.32 1027.70 1028.45 1028.69 1029.15 1029.34 1028.97 1029.39 1028.86 1028.66 1028.30 1027.44 1026.70 1026.34 1026.05
1022.36 1022.88 1023.38 1023.83 1024.36 1024.77 1025.39 1025.92 1026.53 1027.23 1027.59 1027.84 1027.87 1028.04 1028.43 1028.81 1029.35 1029.21 1029.15 1029.21 1028.90 1028.56 1028.02 1027.10 1025.83 1025.69 1025.33
1022.20 1022.74 1023.18 1023.73 1024.37 1025.09 1025.54 1026.09 1026.74 1027.44 1028.00 1028.30 1028.41 1028.72 1029.04 1028.61 1028.58 1029.04 1029.13 1028.98 1028.46 1028.15 1027.92 1027.55 1026.04 1024.80 1024.65
1022.19 1022.63 1023.13 1023.74 1024.28 1025.04 1025.71 1026.25 1027.04 1027.63 1028.33 1028.54 1029.09 1029.70 1030.00 1029.62 1028.64 1028.25 1028.86 1028.53 1028.12 1027.66 1027.23 1027.03 1026.55 1024.74 1024.22
Thickness
5560 5559 5557 5555 5554 5552 5549 5544 5537 5531 5527 5521 5516 5508 5501 5493 5486 5482 5476 5472 5468 5462 5457 5453 5447 5447 5440
5549 5547 5548 5544 5544 5542 5537 5532 5526 5521 5516 5511 5505 5500 5492 5482 5475 5471 5466 5462 5456 5451 5446 5443 5436 5433 5428
5540 5536 5536 5532 5529 5527 5523 5517 5512 5508 5506 5502 5496 5489 5481 5472 5466 5461 5456 5451 5445 5442 5436 5432 5429 5425 5420
5528 5527 5525 5516 5518 5514 5510 5509 5505 5501 5495 5490 5484 5477 5470 5464 5459 5454 5447 5442 5437 5433 5430 5426 5421 5414 5410
5519 5517 5512 5507 5509 5508 5504 5498 5493 5488 5482 5476 5471 5469 5464 5459 5454 5446 5439 5433 5428 5423 5417 5415 5410 5406 5400
5514 5515 5511 5510 5505 5501 5494 5487 5478 5477 5469 5467 5462 5460 5456 5451 5445 5438 5431 5424 5419 5415 5408 5404 5400 5396 5390
5514 5514 5509 5506 5498 5492 5490 5486 5478 5469 5464 5458 5451 5449 5446 5442 5435 5429 5422 5416 5412 5406 5401 5398 5392 5391 5383
5508 5505 5503 5497 5491 5488 5485 5474 5463 5458 5453 5449 5443 5439 5435 5431 5426 5420 5413 5408 5403 5397 5393 5387 5381 5379 5372
5499 5497 5496 5487 5486 5478 5469 5461 5451 5447 5442 5438 5431 5428 5424 5419 5413 5410 5405 5399 5392 5387 5383 5378 5373 5369 5361
5481 5480 5481 5476 5473 5469 5463 5456 5446 5438 5436 5431 5422 5418 5412 5407 5402 5398 5393 5388 5381 5377 5373 5368 5365 5360 5352
5471 5469 5465 5462 5459 5459 5454 5448 5442 5435 5428 5423 5413 5405 5398 5394 5390 5386 5380 5374 5369 5366 5359 5356 5352 5346 5344
5458 5455 5452 5447 5443 5443 5437 5435 5433 5428 5420 5413 5403 5394 5386 5379 5375 5373 5370 5364 5358 5351 5347 5343 5339 5337 5332
5448 5444 5439 5434 5429 5427 5424 5423 5416 5410 5405 5399 5393 5386 5378 5367 5362 5358 5355 5351 5345 5341 5335 5330 5327 5326 5322
5435 5430 5427 5422 5418 5416 5411 5406 5402 5393 5390 5385 5380 5375 5365 5361 5354 5347 5347 5334 5335 5330 5325 5319 5315 5312 5308
5423 5419 5416 5412 5407 5404 5398 5393 5386 5380 5375 5370 5366 5362 5356 5349 5340 5339 5333 5326 5324 5319 5315 5310 5303 5299 5294
5414 5410 5407 5402 5397 5391 5387 5382 5376 5369 5362 5356 5351 5346 5342 5341 5337 5328 5323 5316 5312 5307 5302 5294 5290 5286 5282
5403 5400 5396 5392 5388 5380 5374 5369 5363 5358 5349 5344 5335 5326 5315 5319 5325 5321 5309 5305 5301 5294 5290 5281 5275 5278 5273